Tracking 19145 objects as of 26-Apr-2018
HD Live streaming from Space Station
objects crossing your sky now

FENGYUN 1C DEB

Track FENGYUN 1C DEB now!
10-day predictions


NORAD ID: 36242
Int'l Code: 1999-025DVT
Perigee: 835.3 km
Apogee: 942.5 km
Inclination: 98.2 °
Period: 102.6 minutes
Semi major axis: 7259 km
RCS: 0.0099 m2 (small)
Launch date: May 10, 1999
Source: People's Republic of China (PRC)
Launch site: Taiyaun Space Center, China (TSC)

Note: This is SATELLITE DEBRIS
aabbcc
Your satellite tracking list
Your tracking list is empty




NASA's NSSDC Master Catalog

Two Line Element Set (TLE):
1 36242U 99025DVT 18115.10786297  .00000415  00000-0  28190-3 0  9991
2 36242  98.1543  64.5842 0073813  36.7433 323.8763 14.03492963541717
Source of the keplerian elements: AFSPC